Regional Weather Roundup
Issued by NWS

Home | Current Version | Previous Version | Text Only | Print | Product List | Glossary Off
Versions: 1 2 3 4 5 6 7 8 9 10 11 12 13 14 15 16 17 18 19 20 21 22 23 24 25 26 27 28 29 30 31 32 33 34 35 36 37 38 39 40 41 42 43 44 45 46 47 48 49 50

043
ASUS43 KOAX 261310
RWRNE

WEATHER ROUNDUP FOR NEBRASKA
NATIONAL WEATHER SERVICE OMAHA NE
800 AM CDT TUE JUL 26 2016

NOTES: SATELLITE DATA IS BEING USED TO AUGMENT CLOUD COVER ABOVE
       12000 FEET.
       "FAIR" INDICATES FEW OR NO CLOUDS BELOW 12,000 FEET WITH NO
       SIGNIFICANT WEATHER AND/OR OBSTRUCTIONS TO VISIBILITY.

  * THESE STATIONS DO NOT REPORT WEATHER SUCH AS RAIN...SNOW OR FOG.

NEZ001>004-019>022-054>056-261400-
NEBRASKA PANHANDLE

CITY           SKY/WX    TMP DP  RH WIND       PRES   REMARKS
SCOTTSBLUFF    CLOUDY    65  61  87 SE12      30.07R
ALLIANCE       SUNNY     65  64  97 S15       30.07S
CHADRON        SUNNY     72  61  68 S13       29.99R
KIMBALL        SUNNY     62  58  87 S9        30.13R
SIDNEY         SUNNY     66  64  93 S14       30.12S
$$

NEZ057>060-069>072-079>082-261400-
SOUTHWEST NEBRASKA

CITY           SKY/WX    TMP DP  RH WIND       PRES   REMARKS
NORTH PLATTE   SUNNY     68  65  90 S9        30.11S
IMPERIAL       SUNNY     68  65  90 S10       30.11S
LEXINGTON      PTSUNNY   64  62  94 CALM      30.12R FOG
MCCOOK         SUNNY     67  64  90 SE3       30.11S
OGALLALA       CLOUDY    68  65  89 CALM      30.11S
$$

NEZ005>010-023>029-035>040-094-261400-
NORTH CENTRAL NEBRASKA

CITY           SKY/WX    TMP DP  RH WIND       PRES   REMARKS
VALENTINE      SUNNY     72  63  73 S17G24    30.05S
AINSWORTH      SUNNY     68  64  85 S10       30.08S
BROKEN BOW     SUNNY     67  64  90 S6        30.10F
O`NEILL        SUNNY     69  63  81 S6        30.08F
ORD            SUNNY     65  62  90 CALM      30.09R
THEDFORD       SUNNY     70  66  87 S13       30.10S
$$

NEZ041-046>049-061>064-073>077-083>087-261400-
SOUTH CENTRAL NEBRASKA

CITY           SKY/WX    TMP DP  RH WIND       PRES   REMARKS
GRAND ISLAND   SUNNY     69  63  81 S5        30.10S
AURORA         SUNNY     67  66  97 CALM      30.10S
HASTINGS       SUNNY     67  61  81 S5        30.11S
HEBRON         SUNNY     64  62  93 CALM      30.10R
HOLDREGE       SUNNY     66  63  88 S5        30.11R
KEARNEY *      MOSUNNY   64  61  88 CALM      30.11S
YORK           SUNNY     68  66  94 CALM      30.10S
$$

NEZ011>018-030>034-042>045-261400-
NORTHEAST NEBRASKA

CITY           SKY/WX    TMP DP  RH WIND       PRES   REMARKS
NORFOLK        SUNNY     69  64  84 CALM      30.09R
ALBION         SUNNY     66  63  87 CALM      30.10S
BLAIR          SUNNY     72  66  81 SE3       30.09S
FREMONT        SUNNY     70  67  89 SE3       30.10S
TEKAMAH        MOSUNNY   67  64  90 CALM      30.08S
WAYNE          SUNNY     67  65  93 S3        30.09S
$$

NEZ050>053-065>068-078-088>093-261400-
SOUTHEAST NEBRASKA

CITY           SKY/WX    TMP DP  RH WIND       PRES   REMARKS
LINCOLN        SUNNY     70  66  87 CALM      30.10R
OMAHA EPPLEY   MOSUNNY   71  66  84 CALM      30.08S
BEATRICE       SUNNY     67  64  89 CALM      30.09S
FALLS CITY     SUNNY     70  66  87 CALM      30.08R
NEBRASKA CITY  SUNNY     68  68 100 CALM      30.10S
PLATTSMOUTH    SUNNY     69  67  94 CALM      30.10S
$$

NEZ044-045-051>053-067-261400-
OMAHA AREA

CITY           SKY/WX    TMP DP  RH WIND       PRES   REMARKS
OMAHA EPPLEY   MOSUNNY   71  66  84 CALM      30.08S
BLAIR          SUNNY     72  66  81 SE3       30.09S
FREMONT        SUNNY     70  67  89 SE3       30.10S
MILLARD        SUNNY     71  68  92 SE3       30.09S
OFFUTT AFB     SUNNY     68  68 100 E3        30.08S
PLATTSMOUTH    SUNNY     69  67  94 CALM      30.10S
WAHOO          FAIR      68  66  93 CALM      30.09S
$$




USA.gov is the U.S. government's official web portal to all federal, state and local government web resources and services.